STARLINK-35879

Last updated on Fri Dec 19 2025 00:02:08 GMT+0000 (Coordinated Universal Time)

1 66960U 25288B 25352.58336806 -.01225903 00000+0 -54264-2 0 9994 2 66960 43.0008 131.4204 0001377 270.9968 294.5071 15.85956927 2779
UTC large
Height (km)
Speed (km/s)
/
Latitude / Longitude
Inclination (degrees)
Orbital Period (minutes)
Azimuth
Elevation
Range (km)
Doppler Factor

Next 0 passes for location: London (51.5072 / 0.1276)

Sorry there are no passes over London.